Weather History for Estevan Point, BC

Change the Weather History Date:

Sunday, February 10, 2013

  Actual Average Record
Temperature  
Mean Temperature 44 °F -  
Max Temperature 46 °F - - ()
Min Temperature 41 °F - - ()
Degree Days  
Heating Degree Days 22    
Moisture  
Dew Point -    
Average Humidity    
Maximum Humidity    
Minimum Humidity    
Precipitation  
Precipitation 0.00 in - - ()
Sea Level Pressure  
Sea Level Pressure 30.37 in    
Wind  
Wind Speed 6 mph ()    
Max Wind Speed 16 mph    
Max Gust Speed 22 mph    
T = Trace of Precipitation, MM = Missing Value Source: Averaged Metar Reports

Daily Weather History Graph

Daily Weather History Graph

Search for Another Location

Airport:

Trip Planner

Search our weather history database for the weather conditions in past years. The results will help you decide how hot, cold, wet, or windy it might be!

Date:

Astronomy

Feb. 10, 2013 Rise Set
Actual Time 7:43 AM PST 5:38 PM PST
Civil Twilight 7:09 AM PST 6:11 PM PST
Nautical Twilight 6:32 AM PST 6:49 PM PST
Astronomical Twilight 5:55 AM PST 7:26 PM PST
Moon 7:29 AM PST (2/10) 6:46 PM PST (2/10)
Length of Visible Light 11h 01m
Length of Day
9h 54m
New Moon, 0% of the Moon is Illuminated
Feb 10
New Moon
Feb 17
First Quarter
Feb 25
Full
Mar 4
Last Quarter
Mar 11
New

Hourly Weather History & Observations

Time (PST) Temp. Windchill Dew Point Humidity Pressure Visibility Wind Dir Wind Speed Gust Speed Precip Events Conditions
12:00 AM 43.9 °F 42.3 °F - N/A% 30.35 in - East 3.5 mph - N/A   Unknown
1:00 AM 44 °F - - % 30.36 in - ENE 4.6 mph - -  
1:00 AM 43.7 °F 41.1 °F - N/A% 30.36 in - ENE 4.6 mph - N/A   Unknown
2:00 AM 43.5 °F 40.9 °F - N/A% 30.37 in - East 4.6 mph - N/A   Unknown
3:00 AM 43.7 °F 41.1 °F - N/A% 30.37 in - East 4.6 mph - N/A   Unknown
4:00 AM 43.3 °F 41.7 °F - N/A% 30.38 in - ENE 3.5 mph - N/A   Unknown
5:00 AM 43.0 °F 41.3 °F - N/A% 30.38 in - NE 3.5 mph - N/A   Unknown
6:00 AM 42.4 °F 38.1 °F - N/A% 30.38 in - NE 6.9 mph - N/A   Unknown
7:00 AM 42 °F - - % 30.38 in - NNE 5.8 mph - -  
7:00 AM 42.3 °F 38.6 °F - N/A% 30.38 in - NNE 5.8 mph - N/A   Unknown
8:00 AM 42.1 °F 40.2 °F - N/A% 30.39 in - North 3.5 mph - N/A   Unknown
9:00 AM 42.4 °F 38.1 °F - N/A% 30.39 in - NNE 6.9 mph - N/A   Unknown
10:00 AM 43.5 °F - - N/A% 30.39 in - NNW 2.3 mph - N/A   Unknown
11:00 AM 44.8 °F 41.6 °F - N/A% 30.39 in - WNW 5.8 mph - N/A   Unknown
12:00 PM 45.5 °F 44.2 °F - N/A% 30.39 in - WNW 3.5 mph - N/A   Unknown
1:00 PM 46 °F - - % 30.38 in - NW 9.2 mph - -  
1:00 PM 46.0 °F 41.4 °F - N/A% 30.38 in - NW 9.2 mph - N/A   Unknown
2:00 PM 45.1 °F 41.4 °F - N/A% 30.38 in - WNW 6.9 mph - N/A   Unknown
3:00 PM 45.3 °F 39.3 °F - N/A% 30.38 in - WNW 12.7 mph - N/A   Unknown
4:00 PM 45.9 °F 39.4 °F - N/A% 30.37 in - West 15.0 mph - N/A   Unknown
5:00 PM 45.1 °F 38.4 °F - N/A% 30.36 in - WNW 15.0 mph 21.9 mph N/A   Unknown
6:00 PM 45.0 °F 37.9 °F - N/A% 30.35 in - WNW 16.1 mph - N/A   Unknown
7:00 PM 44 °F - - % 30.37 in - NW 12.7 mph - -  
7:00 PM 44.2 °F 38.0 °F - N/A% 30.37 in - NW 12.7 mph - N/A   Unknown
8:00 PM 44.1 °F 37.4 °F - N/A% 30.36 in - NW 13.8 mph - N/A   Unknown
9:00 PM 41.5 °F 37.8 °F - N/A% 30.35 in - NW 5.8 mph - N/A   Unknown
10:00 PM 41.7 °F 36.1 °F - N/A% 30.35 in - NNW 9.2 mph - N/A   Unknown
11:00 PM 42.3 °F 39.4 °F - N/A% 30.33 in - NW 4.6 mph - N/A   Unknown